Regional Weather Roundup
Issued by NWS

Home | Current Version | Previous Version | Graphics & Text | Print | Product List | Glossary On
Versions: 1 2 3 4 5 6 7 8 9 10 11 12 13 14 15 16 17 18 19 20 21 22 23 24 25 26 27 28 29 30 31 32 33 34 35 36 37 38 39 40 41 42 43 44 45 46 47 48 49 50
000
ASUS43 KLSX 250210
RWRMO

WEATHER SUMMARY FOR MISSOURI
NATIONAL WEATHER SERVICE SPRINGFIELD MO
800 PM CST FRI FEB 24 2017

NOTE: "FAIR" INDICATES FEW OR NO CLOUDS BELOW 12,000 FEET WITH NO
       SIGNIFICANT WEATHER AND/OR OBSTRUCTIONS TO VISIBILITY.
       CURRENT SKY AND/OR WEATHER CONDITIONS ARE NOT AVAILABLE FOR
       CHILLICOTHE AND FARMINGTON.

MOZ001>031-035>038-043-044-053-054-250300-
...NORTHERN AND WESTERN MISSOURI...

CITY           SKY/WX    TMP DP  RH WIND       PRES   REMARKS
KANSAS CTY INT FLURRIES  27  21  78 NW22G30   29.98R WCI  13
KANSAS C DTWN  CLOUDY    29  21  72 NW12G23   29.98R WCI  19
LEE`S SUMMIT   CLOUDY    29  19  66 NW16      29.97R WCI  17
ST JOSEPH      FLURRIES  26  22  84 NW21      30.00R WCI  12
CHILLICOTHE      N/A     28  20  71 NW12G22   29.91R WCI  18
KIRKSVILLE     CLOUDY    28  24  85 NW16G24   29.81R WCI  16

$$
MOZ066>068-077>081-088>096-101>105-250300-
...SOUTHWEST MISSOURI...

CITY           SKY/WX    TMP DP  RH WIND       PRES   REMARKS
SPRINGFIELD    CLOUDY    36  22  56 NW18G30   29.92R WCI  26
JOPLIN         CLOUDY    34  21  59 NW21G29   30.01R WCI  22
BRANSON        PTCLDY    39  25  56 NW18G30   29.90R WCI  30

$$
MOZ032>034-039>042-045>050-055>058-069>072-250300-
...CENTRAL MISSOURI...

CITY           SKY/WX    TMP DP  RH WIND       PRES   REMARKS
COLUMBIA       CLOUDY    33  22  63 W23G38    29.84R WCI  21
JEFFERSON CITY CLOUDY    35  23  61 W23G35    29.86R WCI  23
ROLLA          LGT RAIN  40  27  59 W23G33    29.79R WCI  30
SEDALIA        CLOUDY    32  20  61 NW25G36   29.92R WCI  19
WHITEMAN AFB   CLOUDY    31  22  69 NW22G31   29.92R WCI  18
WARRENSBURG    CLOUDY    30  21  69 W14       29.96R WCI  20
OSAGE BEACH    MIX PCPN  36  26  67 W16G22    29.89R WCI  26

$$
MOZ051-052-059>065-250300-
...EAST CENTRAL MISSOURI...

CITY           SKY/WX    TMP DP  RH WIND       PRES   REMARKS
ST LOUIS INTL  MOCLDY    47  30  51 W17       29.73R
SPIRIT OF STL  CLOUDY    45  31  58 W25G35    29.73R
ST CHARLES     CLOUDY    45  32  60 W21G33    29.72R

$$
MOZ072>076-082>087-097>100-106>115-250300-
...SOUTH CENTRAL AND SOUTHEAST MISSOURI...

CITY           SKY/WX    TMP DP  RH WIND       PRES   REMARKS
CAPE GIRARDEAU CLEAR     52  33  48 W16       29.73R
FARMINGTON     CLEAR     45  30  55 W8        29.76R
POPLAR BLUFF   CLEAR     52  32  46 W9        29.78R
WEST PLAINS    CLEAR     43  27  53 W14G20    29.83R

$$




USA.gov is the U.S. government's official web portal to all federal, state and local government web resources and services.